ASTERIA (43020 NORAD) Tracking and Keplerian Element Data

This shows tracking and keplerian element data for the satellite.

Feedback or suggestion? Click here.




ElementValue
Catalog43020
NameASTERIA
Epoch Orbit5619
Epoch Day319.9364499
Epoch Year2018
RAAN330.1253
Inclination51.6425
Eccentricity0.0003111
Argument of Perigee34.7582
Mean Anonmoly325.3615
Mean Motion15.62999045
Decay Rate0.0001302
L11 43020U 98067NH 18319.93644990 .00013020 00000-0 14622-3 0 9999
L22 43020 51.6425 330.1253 0003111 34.7582 325.3615 15.62999045 56192

Live tracking and technical data element details for ASTERIA (NORAD 43020). ASTERIA can be tracked NOW for your location showing map with azimuth and elevation plus other details from your city location.

Track the satellite on the map from your city or location and see movement details for azimuth, elevation, latitude, longitude, range, height, and movement on the map or in text.







IsCatalogInMostPopularTable: catalog: 43020, numindb: 159
Update: records affected: 1



GetName: 43020 ASTERIA

Hit Count: updated at: Fri, 16 Nov 2018 09:57:43 GMT